When you browse on this site, cookies collect data to enhance your experience and personalize the content and advertising you see.
Visit our Privacy Policy to learn more. By continuing to use the site, you agree to this use of cookies and data.
  • In Deutschland
  • Länderverzeichnis
  • Für 7 Tage
  • Wassertemperatur
  • Wetterkarte
  • Widgets
  • user-avatar
    Anmelden

    Stündliche Wetter Beverly

    Heute, 23 September, Montag

    Zeit Temperatur Niederschläge Wind Luftdruck Luftfeuchtigkeit
    00:00 +15°C° 0 mm 4 m/S 753 mmHg 95%
    01:00 +14°C° 0 mm 4 m/S 753 mmHg 94%
    02:00 +14°C° 0 mm 4 m/S 753 mmHg 94%
    03:00 +14°C° 0 mm 4 m/S 753 mmHg 94%
    04:00 +13°C° 0 mm 4 m/S 753 mmHg 94%
    05:00 +13°C° 0 mm 4 m/S 754 mmHg 95%
    06:00 +13°C° 0 mm 4 m/S 754 mmHg 96%
    07:00 +14°C° 0 mm 4 m/S 754 mmHg 91%
    08:00 +15°C° 0 mm 4 m/S 755 mmHg 86%
    09:00 +17°C° 0 mm 4 m/S 755 mmHg 81%
    10:00 +18°C° 0 mm 4 m/S 755 mmHg 72%
    11:00 +19°C° 0 mm 5 m/S 755 mmHg 63%
    12:00 +20°C° 0 mm 5 m/S 755 mmHg 55%
    13:00 +20°C° 0 mm 5 m/S 755 mmHg 53%
    14:00 +20°C° 0 mm 5 m/S 755 mmHg 52%
    15:00 +20°C° 0 mm 5 m/S 755 mmHg 51%
    16:00 +19°C° 0 mm 5 m/S 755 mmHg 56%
    17:00 +17°C° 0 mm 5 m/S 755 mmHg 62%
    18:00 +16°C° 0 mm 5 m/S 755 mmHg 67%
    19:00 +16°C° 0.1 mm 5 m/S 755 mmHg 71%
    20:00 +16°C° 0.1 mm 6 m/S 754 mmHg 75%
    21:00 +15°C° 0.1 mm 7 m/S 754 mmHg 79%
    22:00 +15°C° 0.1 mm 7 m/S 754 mmHg 81%
    23:00 +16°C° 0.1 mm 7 m/S 753 mmHg 83%

    Morgen, 24 September, Dienstag

    Zeit Temperatur Niederschläge Wind Luftdruck Luftfeuchtigkeit
    00:00 +16°C° 0.1 mm 7 m/S 753 mmHg 84%
    01:00 +16°C° 0 mm 6 m/S 753 mmHg 86%
    02:00 +16°C° 0 mm 5 m/S 752 mmHg 87%
    03:00 +16°C° 0 mm 5 m/S 752 mmHg 89%
    04:00 +15°C° 0 mm 4 m/S 751 mmHg 91%
    05:00 +15°C° 0 mm 4 m/S 751 mmHg 93%
    06:00 +15°C° 0 mm 4 m/S 750 mmHg 95%
    07:00 +17°C° 0.1 mm 4 m/S 750 mmHg 92%
    08:00 +17°C° 0.1 mm 5 m/S 749 mmHg 88%
    09:00 +19°C° 0.1 mm 5 m/S 749 mmHg 84%
    10:00 +17°C° 1.7 mm 5 m/S 748 mmHg 85%
    11:00 +17°C° 1.7 mm 5 m/S 748 mmHg 86%
    12:00 +17°C° 1.7 mm 4 m/S 748 mmHg 87%
    13:00 +17°C° 1.9 mm 4 m/S 747 mmHg 89%
    14:00 +17°C° 1.9 mm 4 m/S 747 mmHg 91%
    15:00 +15°C° 1.9 mm 4 m/S 747 mmHg 93%
    16:00 +15°C° 1 mm 4 m/S 747 mmHg 92%
    17:00 +15°C° 1 mm 4 m/S 747 mmHg 90%
    18:00 +15°C° 1 mm 4 m/S 747 mmHg 89%
    19:00 +15°C° 0.1 mm 4 m/S 747 mmHg 88%
    20:00 +14°C° 0.1 mm 4 m/S 747 mmHg 87%
    21:00 +14°C° 0.1 mm 4 m/S 747 mmHg 86%
    22:00 +14°C° 0 mm 4 m/S 747 mmHg 88%
    23:00 +13°C° 0 mm 4 m/S 747 mmHg 90%

    übermorgen, 25 September, Mittwoch

    Zeit Temperatur Niederschläge Wind Luftdruck Luftfeuchtigkeit
    00:00 +13°C° 0 mm 4 m/S 747 mmHg 91%
    01:00 +13°C° 0 mm 4 m/S 747 mmHg 92%
    02:00 +12°C° 0 mm 3 m/S 747 mmHg 93%
    03:00 +12°C° 0 mm 3 m/S 747 mmHg 94%
    04:00 +12°C° 0 mm 3 m/S 747 mmHg 94%
    05:00 +12°C° 0 mm 3 m/S 747 mmHg 94%
    06:00 +13°C° 0 mm 2 m/S 747 mmHg 95%
    07:00 +14°C° 0 mm 2 m/S 747 mmHg 93%
    08:00 +15°C° 0 mm 2 m/S 747 mmHg 91%
    09:00 +15°C° 0 mm 2 m/S 748 mmHg 89%
    10:00 +16°C° 0 mm 2 m/S 748 mmHg 87%
    11:00 +16°C° 0 mm 2 m/S 748 mmHg 86%
    12:00 +18°C° 0 mm 1 m/S 749 mmHg 84%
    13:00 +18°C° 0.1 mm 1 m/S 749 mmHg 81%
    14:00 +19°C° 0.1 mm 1 m/S 749 mmHg 78%
    15:00 +19°C° 0.1 mm 1 m/S 749 mmHg 75%
    16:00 +18°C° 0 mm 1 m/S 749 mmHg 78%
    17:00 +18°C° 0 mm 1 m/S 749 mmHg 82%
    18:00 +16°C° 0 mm 1 m/S 750 mmHg 85%
    19:00 +15°C° 0 mm 1 m/S 750 mmHg 87%
    20:00 +15°C° 0 mm 1 m/S 750 mmHg 89%
    21:00 +15°C° 0 mm 2 m/S 750 mmHg 90%
    22:00 +14°C° 0 mm 2 m/S 750 mmHg 91%
    23:00 +13°C° 0 mm 3 m/S 750 mmHg 91%

    26 September, Donnerstag

    Zeit Temperatur Niederschläge Wind Luftdruck Luftfeuchtigkeit
    00:00 +13°C° 0 mm 3 m/S 750 mmHg 91%
    01:00 +13°C° 0.2 mm 4 m/S 750 mmHg 91%
    02:00 +14°C° 0.2 mm 5 m/S 749 mmHg 92%
    03:00 +14°C° 0.2 mm 6 m/S 749 mmHg 92%
    04:00 +14°C° 0.1 mm 6 m/S 749 mmHg 92%
    05:00 +15°C° 0.1 mm 6 m/S 749 mmHg 92%
    06:00 +15°C° 0.1 mm 6 m/S 749 mmHg 92%
    07:00 +15°C° 0.1 mm 6 m/S 749 mmHg 86%
    08:00 +16°C° 0.1 mm 6 m/S 750 mmHg 80%
    09:00 +16°C° 0.1 mm 5 m/S 750 mmHg 74%
    10:00 +17°C° 0.1 mm 5 m/S 750 mmHg 68%
    11:00 +17°C° 0.1 mm 6 m/S 750 mmHg 62%
    12:00 +19°C° 0.1 mm 6 m/S 751 mmHg 56%
    13:00 +19°C° 0.1 mm 6 m/S 751 mmHg 57%
    14:00 +19°C° 0.1 mm 5 m/S 751 mmHg 59%
    15:00 +17°C° 0.1 mm 5 m/S 751 mmHg 60%
    16:00 +16°C° 0.1 mm 5 m/S 751 mmHg 63%
    17:00 +15°C° 0.1 mm 4 m/S 751 mmHg 67%
    18:00 +14°C° 0.1 mm 4 m/S 751 mmHg 70%
    19:00 +14°C° 0 mm 4 m/S 751 mmHg 72%
    20:00 +13°C° 0 mm 4 m/S 751 mmHg 74%
    21:00 +12°C° 0 mm 5 m/S 752 mmHg 75%
    22:00 +12°C° 0 mm 5 m/S 752 mmHg 76%
    23:00 +12°C° 0 mm 5 m/S 752 mmHg 78%

    27 September, Freitag

    Zeit Temperatur Niederschläge Wind Luftdruck Luftfeuchtigkeit
    00:00 +12°C° 0 mm 5 m/S 752 mmHg 79%
    01:00 +12°C° 0 mm 5 m/S 752 mmHg 80%
    02:00 +10°C° 0 mm 5 m/S 751 mmHg 81%
    03:00 +10°C° 0 mm 6 m/S 751 mmHg 83%
    04:00 +10°C° 0 mm 6 m/S 751 mmHg 83%
    05:00 +10°C° 0 mm 6 m/S 751 mmHg 83%
    06:00 +10°C° 0 mm 6 m/S 751 mmHg 84%
    07:00 +11°C° 0 mm 7 m/S 751 mmHg 81%
    08:00 +12°C° 0 mm 7 m/S 751 mmHg 79%
    09:00 +12°C° 0 mm 8 m/S 750 mmHg 76%
    10:00 +13°C° 0.1 mm 8 m/S 750 mmHg 72%
    11:00 +15°C° 0.1 mm 8 m/S 750 mmHg 69%
    12:00 +16°C° 0.1 mm 8 m/S 750 mmHg 65%
    13:00 +16°C° 0.2 mm 8 m/S 750 mmHg 66%
    14:00 +16°C° 0.2 mm 8 m/S 750 mmHg 67%
    15:00 +16°C° 0.2 mm 8 m/S 749 mmHg 68%
    16:00 +15°C° 0.1 mm 7 m/S 749 mmHg 70%
    17:00 +14°C° 0.1 mm 7 m/S 749 mmHg 72%
    18:00 +14°C° 0.1 mm 6 m/S 749 mmHg 74%
    19:00 +12°C° 0 mm 7 m/S 749 mmHg 75%
    20:00 +12°C° 0 mm 7 m/S 750 mmHg 76%
    21:00 +12°C° 0 mm 7 m/S 750 mmHg 77%
    22:00 +11°C° 0 mm 7 m/S 750 mmHg 79%
    23:00 +11°C° 0 mm 7 m/S 750 mmHg 80%

    28 September, Samstag

    Zeit Temperatur Niederschläge Wind Luftdruck Luftfeuchtigkeit
    00:00 +11°C° 0 mm 6 m/S 750 mmHg 81%
    01:00 +11°C° 0 mm 7 m/S 750 mmHg 80%
    02:00 +11°C° 0 mm 7 m/S 749 mmHg 79%
    03:00 +11°C° 0 mm 7 m/S 749 mmHg 78%
    04:00 +11°C° 0 mm 8 m/S 749 mmHg 77%
    05:00 +11°C° 0 mm 9 m/S 749 mmHg 76%
    06:00 +12°C° 0 mm 10 m/S 749 mmHg 74%
    07:00 +12°C° 0 mm 9 m/S 750 mmHg 71%
    08:00 +13°C° 0 mm 9 m/S 750 mmHg 68%
    09:00 +13°C° 0 mm 9 m/S 751 mmHg 65%
    10:00 +15°C° 0 mm 9 m/S 751 mmHg 63%
    11:00 +15°C° 0 mm 8 m/S 751 mmHg 60%
    12:00 +16°C° 0 mm 8 m/S 752 mmHg 58%
    13:00 +16°C° 0 mm 8 m/S 752 mmHg 58%
    14:00 +16°C° 0 mm 8 m/S 751 mmHg 58%
    15:00 +16°C° 0 mm 8 m/S 751 mmHg 58%
    16:00 +15°C° 0 mm 7 m/S 751 mmHg 63%
    17:00 +14°C° 0 mm 6 m/S 752 mmHg 68%
    18:00 +13°C° 0 mm 6 m/S 752 mmHg 74%
    19:00 +13°C° 0 mm 6 m/S 752 mmHg 76%
    20:00 +11°C° 0 mm 6 m/S 752 mmHg 78%
    21:00 +12°C° 0 mm 5 m/S 753 mmHg 80%
    22:00 +12°C° 0 mm 5 m/S 753 mmHg 81%
    23:00 +10°C° 0 mm 5 m/S 752 mmHg 83%
    Mehr zeigen